Warning: Javascript must be enabled to use all the features on this page!


Page Loading - Please Wait...

Click to hideNews Bulletins

Peak Streamflow for the Nation

USGS 02485700 HANGING MOSS CREEK NR JACKSON, MS

Hinds County, Mississippi
Hydrologic Unit Code 03180002
Latitude  32°21'54", Longitude  90°08'41" NAD83
Drainage area 16.8  square miles
Contributing drainage area 16.8  square miles
Gage datum 260.00 feet above NGVD29
Output formats
Table
Graph
Tab-separated file
peakfq (watstore) format
Reselect output format
Water
Year
Date Gage
Height
(feet)
Stream-
flow
(cfs)
1953 1953-04-29 99.603 5,320
1954 1954-05-01 96.283 1,530
1955 1955-04-12 97.873 2,890
1956 1956-02-03 95.963 1,370
1957 1957-04-04 97.043 2,060
1958 1957-11-13 97.673 2,670
1959 1959-01-15 97.463 2,400
1960 1960-05-05 97.873 2,900
1961 1961-06-20 95.203,6 1,600
1962 1962-04-11 24.403 3,350
1963 1963-07-08 22.543 1,440
1964 1964-03-02 13.803 2,500C
1965 1964-12-11 14.273 1,450C
1966 1966-05-21 16.403 2,500C
1967 1967-05-22 15.383 1,900C
1968 1968-05-10 14.723 1,650C
1969 1969-04-17 16.343 2,440C
1970 1969-12-30 15.423 1,150C
1971 1970-10-13 16.513 1,650C
1972 1972-02-07 17.313 2,140C
1973 1973-04-16 19.233 3,410C
1974 1974-01-24 18.553 3,000C
1975 1975-02-16 20.823 2,950C
1976 1975-10-16 21.743 3,450C
1977 1977-04-04 20.983 3,900C
1978 1977-11-30 20.073 4,500C
1979 1979-04-12 21.303 4,120C
1980 1980-04-12 20.703,6 3,720C
1981 1981-06-01 15.64 1,470C
1982 1982-08-01 17.30 2,120C
1983 1983-04-14 20.64 4,050C
1984 1984-03-05 17.10 2,880C
1985 1985-02-24 15.90 2,330C
1986 1985-10-23 14.26 1,650C
1987 1987-03-17 16.25 2,490C
1988 1988-04-02 15.91 2,340C
1989 1989-07-27 18.64 3,600C
1990 1989-11-08 19.42 4,030C
1991 1991-04-28 17.97 3,250C
1992 1992-08-27 14.20 1,240C
1993 1993-07-15 14.49 1,330C
1994 1994-01-27 17.91 2,580C
1995 1995-04-20 20.97 3,980C
1996 1996-01-26 18.20 3,880C
1997 1997-06-10 16.25 2,630C
1998 1998-07-14 16.20 2,610C
1999 1999-01-30 17.37 3,260C
2000 2000-04-03 15.16 2,090C
2001 2000-11-08 17.63 3,420C
2002 2002-07-30 18.11 3,740C
2003 2003-04-07 24.18 8,3602,C
2004 2004-05-31 14.39 1,750C
2005 2004-12-09 16.62 2,690C
2006 2006-02-25 15.74 2,240C
2007 2006-10-21 14.35 1,630C
2008 2008-05-15 16.76 2,770C
2009 2009-07-29 16.35 2,550C
2010 2010-01-21 18.07 3,530C
2011 2011-09-05 19.78 4,700C
2012 2012-07-19 14.23 2,400C
2013 2012-12-25 16.79 3,870C
2014 2014-04-06 15.062 2,510C
2015 2015-04-19 11.56 1,270C
2016 2016-03-10 19.41 4,520C
2017 2017-04-03 22.27 6,450C
?
  Peak Gage-Height Qualification Codes.
?
  Peak Streamflow Qualification Codes.